747  
ASHW40 PHFO 201943  
RWRHI  
 
WEATHER ROUNDUP FOR HAWAII  
NATIONAL WEATHER SERVICE HONOLULU HI  
900 AM HST WED FEB 20 2019  
 
THIS IS AN AUTOMATED REPORT THAT HAS NOT BEEN QUALITY CONTROLLED.  
 
NOTE..."FAIR" INDICATES FEW OR NO CLOUDS BELOW 12,000 FEET WITH NO  
SIGNIFICANT WEATHER AND/OR S TO VISIBILITY
.  
 
* - THESE SITES REPORT LIMITED FIELDS  
# - BUOY DATA PROVIDED BY PACIFIC ISLANDS OCEAN OBSERVING SYSTEM.  
 
HIZ001>004-202000-  
KAUAI-NIIHAU-  
 
CITY SKY/WX TMP DP RH WIND PRES REMARKS
 
LIHUE APT MOSUNNY 71 63 75 CALM 29.97R  
PORT ALLEN* N/A 72 N/A N/A NE3 N/A  
POIPU* N/A 70 N/A N/A N1 N/A  
PRINCEVILLE* N/A 68 N/A N/A S2 N/A  
KOKOLE POINT* NOT AVBL  
MOLOAA DAIRY* N/A 72 66 83 W3 N/A  
WAIMEA HTS* N/A 75 63 64 SE3 N/A  
PUU OPAE* N/A N/A N/A N/A SE3 N/A  
PUU LUA* NOT AVBL  
MAKAHA RIDGE* N/A 66 61 82 W2 N/A  

 
 
HIZ005>011-202000-  
OAHU-  
 
CITY SKY/WX TMP DP RH WIND PRES REMARKS
 
HONOLULU SUNNY 71 64 78 CALM 29.97R  
KALAELOA SUNNY 73 65 75 CALM 29.98R  
KANEOHE MCB LGT RAIN 65 61 87 CALM 29.95R  
WHEELER FIELD FAIR 67 64 89 CALM 29.97R  
BELLOWS* N/A N/A N/A N/A N2 N/A  
KAHUKU* N/A N/A N/A N/A NE2 N/A  
WHEELER* N/A N/A N/A N/A E1 N/A  
WAIANAE HARBOR N/A N/A N/A N/A S3 N/A  
DILLINGHAM* N/A 57 55 94 CALM N/A  
KAHUKU TRN* N/A 72 64 78 CALM N/A  
KAWAILOA* N/A 70 59 68 SE2 N/A  
KII* N/A 72 68 88 E3 N/A  
MAKUA RANGE* N/A 63 52 67 SE1G8 N/A  
OAHU FOREST NW N/A N/A N/A N/A SE3 N/A  
SCHOFIELD BRK* N/A 70 63 78 E2 N/A  
SCHOFIELD S* NOT AVBL  
WAIANAE VLY* NOT AVBL  
KUAOKALA* N/A 72 N/A N/A CALM N/A  
HONOULIUULI* NOT AVBL  
MOKUOLOE IS* N/A 70 N/A N/A S1 N/A  
PALEHUA* N/A 70 59 68 CALM N/A  
WAIAWA PHB* NOT AVBL  

 
 
HIZ012>013-202000-  
MOLOKAI-  
 
CITY SKY/WX TMP DP RH WIND PRES REMARKS
 
MOLOKAI AIRPT SUNNY 73 67 81 E5 29.98R  
KALAUPAPA NOT AVBL  
MAKAPULAPAI* N/A 75 68 78 SE6 N/A  
MOLOKAI 1* NOT AVBL  
PUU ALII* N/A 57 51 81 E2 N/A  

 
 
HIZ016-202000-  
KAHOOLAWE-  
 
CITY SKY/WX TMP DP RH WIND PRES REMARKS
 
KAHOOLAWE* NOT AVBL  
HAKIOAWA* N/A 70 69 98 W32 30.39R  
HONOKANAIA* NOT AVBL  
KANELOA* N/A 70 66 88 NE3 30.01R  
KEALIALALO* NOT AVBL  
LUA MAKIKA* NOT AVBL  

 
 
HIZ014>015-202000-  
LANAI-  
 
CITY SKY/WX TMP DP RH WIND PRES REMARKS
 
LANAI CITY PTSUNNY 68 66 94 VRB3 30.04  
LANAI 1* NOT AVBL  

 
 
HIZ017>028-202000-  
MAUI-  
 
CITY SKY/WX TMP DP RH WIND PRES REMARKS
 
KAHULUI MOSUNNY 74 71 91 CALM 29.97R  
KAPALUA-W MAUI MOSUNNY 72 64 78 VRB6 29.98  
HANA AIRPORT NOT AVBL  
HANA* N/A 72 N/A N/A SE6G13 N/A  
HALEAKALA SUMM NOT AVBL  
MAALAEA BAY* N/A 73 N/A N/A NE3 N/A  
HALEAKALA* NOT AVBL  
KAUPO GAP* NOT AVBL  
KULA 1* N/A 53 38 56 S10G22 N/A  

 
 
HIZ023>026-202000-  
BIG ISLAND OF HAWAII COAST AND LOWER SLOPES-  
 
CITY SKY/WX TMP DP RH WIND PRES REMARKS
 
KAILUA KONA PTSUNNY 75 69 81 SW5 29.97R  
HILO PTSUNNY 71 67 87 SW3 29.98R  
HONOKAA* NOT AVBL  
KAWAIHAE MWT* NOT AVBL  
KAWAIHAE* N/A 75 N/A N/A W5 N/A  
SOUTH POINT* N/A 72 N/A N/A N1 N/A  
UPOLU AIRPORT* NOT AVBL  
KAMUELA* NOT AVBL  
HAKALAU* N/A 60 54 80 SE1 N/A  
KALOKO-HONOKO* N/A 79 70 73 W3 29.96R  
PALI 2* N/A 70 66 88 NE2 N/A  
KEALAKOMO* N/A 77 72 83 NE7 N/A  
KAUPULEHU* N/A 73 68 83 N5 N/A  
KAPAPALA* N/A 74 66 76 N3 N/A  
LOWER KAHUKU* NOT AVBL  
PUHE CS* N/A 75 66 73 S1 N/A  
PUHO CS* N/A 74 68 82 N1 N/A  
PTA KEAMUKU* N/A 73 52 46 SW5 N/A  
WAIKOLOA* N/A 75 66 73 VRB3 N/A  

 
 
HIZ027>028-202000-  
BIG ISLAND OF HAWAII INTERIOR AND SUMMMITS-  
 
CITY SKY/WX TMP DP RH WIND PRES REMARKS
 
BRADSHAW FIELD MOSUNNY 65 49 56 NW5 30.32R  
MK VISITOR CEN N/A 50 37 62 NW17 N/A  
MAUNA KEA* N/A 30 30 100 SW58G72 N/A WCI 11  
MAUNA LOA* NOT AVBL  
MAUNA LOA 1* NOT AVBL  
PTA KIPUKA* N/A 66 50 55 E3 N/A  
PTA RANGE 17* N/A 66 48 52 W2 N/A  
PTA WEST* N/A 54 34 47 S6G12 N/A  
NENE CABIN* NOT AVBL  
AHUMOA* N/A 61 50 67 S12G20 N/A  
PTA PORTABLE* NOT AVBL  
PUU MALI* N/A 59 45 58 NW6 N/A  

 
 
HIC003-202000-  
NORTHWEST ISLANDS-  
 
CITY SKY/WX TMP DP RH WIND PRES REMARKS
 
MIDWAY ISLAND MOCLDY N/A N/A N/A CALM 30.11R  
MIDWAY NOS* N/A 64 N/A N/A MISG 30.09S  
FRENCH FRIGATE NOT AVBL  

 
 
PHZ110>124-180-202000-  
BUOY REPORTS  
 
STATION/POSITION TIME TEMP WIND PRES WAVE SWELL
 
AIR SEA DIR/SP/G HT/PER HT/DIR  
(UTC) (F) (DEG/KT/KT) (MB) (FT/S) (FT/D)  
BUOY 51101 1930 71 71 190/ 6/ 10 1014.7R  
BUOY 51100 NOT AVBL  
BUOY 51002 1930 1015.5R  
BUOY 51003 NOT AVBL  
BUOY 51004 1930 76 76 N/A  
WAIMEA BAY# 1912 72 N/A 8/10 3/ 30  
MOKAPU POINT# 1930 74 N/A 8/11 5/ 60  
LANAI# 1900 75 N/A 2/13 2/250  
BARBERS PT# 1930 75 N/A 3/13 2/250  
PAUWELA# 1930 74 N/A 10/10 5/ 70  
HILO# 1916 77 N/A 10/ 9 5/ 60  
KANEOHE BAY# 1924 73 N/A 8/10 3/ 40  
KANEOHE BAY 2# NOT AVBL  
HANALEI# 1906 74 N/A 10/10 5/ 60  
KAHULUI HARBOR 1912 72 20/ 2/ 3 1014.9  
HONOLULU HARBOR 1906 71 74 290/ 1/ 2 1015.0  
PEARL HARBOR# 1900 73 N/A 2/ 9 2/170  
KILO NALU NOT AVBL  
HILO HARBOR 1906 74 75 CALM / 1 1014.4  
MOKUOLOE 1836 67 CALM / 1 1014.8R  
NAWILIWILI 1906 66 76 230/ 4/ 5 1014.8  
WHOTS BUOY NOT AVBL  
BUOY 51028 NOT AVBL  

 
   
.....................KEY.....................................
 
 
SKY/WX - SKY CONDITIONS/PRESENT WEATHER  
TMP - TEMPERATURE IN FAHRENHEIT  
DWPT - DEWPOINT IN FAHRENHEIT  
RH - RELATIVE HUMIDITY IN PERCENT  
WIND - DIRECTION AND SPEED /MPH FOR ISLANDS...KTS FOR BUOYS/  
PRES - MEAN SEA LEVEL PRESSURE IN INCHES OF HG  
VSB - VISIBILITY IN MILES  
HX - HEAT INDEX  
WCI - WIND CHILL INDEX  
VRB - VARIABLE WIND DIRECTION  
N/A - NOT AVAILABLE  
 
 
CLICK HERE TO GO TO PREVIOUS BULLETINS.

The Nexlab HI Page Main Text Page